owner,sensor,date,latitude,longitude,vertical_datum,wind_speed,wind_to_direction,wind_speed_of_gust,qcFlag 
TABS,ioos:station:TABS:X:1,2017-07-01T00:00:00Z,27.0660,-96.3383,4.0,8.468317424,168.5576144,9.83,'11111222,11111222,11111222' 
TABS,ioos:station:TABS:X:1,2017-07-01T00:30:00Z,27.0660,-96.3383,4.0,8.480147404,169.9492011,10.12,'11111222,11111222,11111222' 
TABS,ioos:station:TABS:X:1,2017-07-01T01:00:00Z,27.0660,-96.3383,4.0,9.333000589,170.3158745,10.89,'11111222,11111222,11111222' 
TABS,ioos:station:TABS:X:1,2017-07-01T01:30:00Z,27.0660,-96.3383,4.0,9.461173289,170.4483082,11.13,'11111222,11111222,11111222' 
TABS,ioos:station:TABS:X:1,2017-07-01T02:00:00Z,27.0660,-96.3383,4.0,9.489889357,171.2724297,10.72,'11111222,11111222,11111222' 
TABS,ioos:station:TABS:X:1,2017-07-01T02:30:00Z,27.0660,-96.3383,4.0,8.927003977,172.4692042,10.13,'11111222,11111222,11111222' 
TABS,ioos:station:TABS:X:1,2017-07-01T03:00:00Z,27.0660,-96.3383,4.0,9.278103254,174.8057937,10.62,'11111222,11111222,11111222' 
TABS,ioos:station:TABS:X:1,2017-07-01T03:30:00Z,27.0660,-96.3383,4.0,9.459048578,176.3634301,10.86,'11111222,11111222,11111222' 
TABS,ioos:station:TABS:X:1,2017-07-01T04:00:00Z,27.0660,-96.3383,4.0,9.101829486,176.0312126,10.57,'11111222,11111222,11111222' 
TABS,ioos:station:TABS:X:1,2017-07-01T04:30:00Z,27.0660,-96.3383,4.0,9.781308706,179.062942,12.25,'11111222,11111222,11111222' 
TABS,ioos:station:TABS:X:1,2017-07-01T05:00:00Z,27.0660,-96.3383,4.0,10.09340379,177.0471005,11.83,'11111222,11111222,11111222' 
TABS,ioos:station:TABS:X:1,2017-07-01T05:30:00Z,27.0660,-96.3383,4.0,10.25370665,177.037357,11.85,'11111222,11111222,11111222' 
TABS,ioos:station:TABS:X:1,2017-07-01T06:00:00Z,27.0660,-96.3383,4.0,9.696318889,177.9316076,11.23,'11111222,11111222,11111222' 
TABS,ioos:station:TABS:X:1,2017-07-01T06:30:00Z,27.0660,-96.3383,4.0,9.975299494,184.0817254,11.69,'11111222,11111222,11111222' 
TABS,ioos:station:TABS:X:1,2017-07-01T07:00:00Z,27.0660,-96.3383,4.0,10.05053232,182.6234752,11.44,'11111222,11111222,11111222' 
TABS,ioos:station:TABS:X:1,2017-07-01T07:30:00Z,27.0660,-96.3383,4.0,10.13284264,183.8481279,11.65,'11111222,11111222,11111222' 
TABS,ioos:station:TABS:X:1,2017-07-01T08:00:00Z,27.0660,-96.3383,4.0,9.592085279,181.1949412,10.93,'11111222,11111222,11111222' 
TABS,ioos:station:TABS:X:1,2017-07-01T08:30:00Z,27.0660,-96.3383,4.0,10.27875965,185.5832203,12.12,'11111222,11111222,11111222' 
TABS,ioos:station:TABS:X:1,2017-07-01T09:00:00Z,27.0660,-96.3383,4.0,9.819129289,187.7259383,11.15,'11111222,11111222,11111222' 
TABS,ioos:station:TABS:X:1,2017-07-01T09:30:00Z,27.0660,-96.3383,4.0,9.021330279,183.9410178,10.89,'11111222,11111222,11111222' 
TABS,ioos:station:TABS:X:1,2017-07-01T10:00:00Z,27.0660,-96.3383,4.0,9.390005325,179.9391928,10.61,'11111222,11111222,11111222' 
TABS,ioos:station:TABS:X:1,2017-07-01T10:30:00Z,27.0660,-96.3383,4.0,9.499736838,182.5945506,11.65,'11111222,11111222,11111222' 
TABS,ioos:station:TABS:X:1,2017-07-01T11:00:00Z,27.0660,-96.3383,4.0,8.633753529,175.7491187,10.05,'11111222,11111222,11111222' 
TABS,ioos:station:TABS:X:1,2017-07-01T11:30:00Z,27.0660,-96.3383,4.0,9.22239123,181.3049833,10.13,'11111222,11111222,11111222' 
TABS,ioos:station:TABS:X:1,2017-07-01T12:00:00Z,27.0660,-96.3383,4.0,8.711383357,175.9848931,9.85,'11111222,11111222,11111222' 
TABS,ioos:station:TABS:X:1,2017-07-01T12:30:00Z,27.0660,-96.3383,4.0,8.804754397,169.596442,10.1,'11111222,11111222,11111222' 
TABS,ioos:station:TABS:X:1,2017-07-01T13:00:00Z,27.0660,-96.3383,4.0,8.222682044,165.2034828,9.36,'11111222,11111222,11111222' 
TABS,ioos:station:TABS:X:1,2017-07-01T13:30:00Z,27.0660,-96.3383,4.0,7.511677576,171.0395009,8.5,'11111222,11111222,11111222' 
TABS,ioos:station:TABS:X:1,2017-07-01T14:00:00Z,27.0660,-96.3383,4.0,8.621322404,159.2108628,9.9,'11111222,11111222,11111222' 
TABS,ioos:station:TABS:X:1,2017-07-01T14:30:00Z,27.0660,-96.3383,4.0,8.689056335,164.9244107,9.85,'11111222,11111222,11111222' 
TABS,ioos:station:TABS:X:1,2017-07-01T15:00:00Z,27.0660,-96.3383,4.0,8.605631877,166.5614807,10.17,'11111222,11111222,11111222' 
TABS,ioos:station:TABS:X:1,2017-07-01T15:30:00Z,27.0660,-96.3383,4.0,8.293226152,171.4011419,9.69,'11111222,11111222,11111222' 
TABS,ioos:station:TABS:X:1,2017-07-01T16:00:00Z,27.0660,-96.3383,4.0,6.887466878,161.7231436,7.91,'11111222,11111222,11111222' 
TABS,ioos:station:TABS:X:1,2017-07-01T16:30:00Z,27.0660,-96.3383,4.0,7.063596817,166.908348,8.5,'11111222,11111222,11111222' 
TABS,ioos:station:TABS:X:1,2017-07-01T17:00:00Z,27.0660,-96.3383,4.0,6.174544518,158.6296382,7.66,'11111222,11111222,11111222' 
TABS,ioos:station:TABS:X:1,2017-07-01T17:30:00Z,27.0660,-96.3383,4.0,6.31927211,151.2450955,7.52,'11111222,11111222,11111222' 
TABS,ioos:station:TABS:X:1,2017-07-01T18:00:00Z,27.0660,-96.3383,4.0,5.813811142,148.9351182,6.67,'11111222,11111222,11111222' 
TABS,ioos:station:TABS:X:1,2017-07-01T18:30:00Z,27.0660,-96.3383,4.0,6.039089335,147.4417754,7.09,'11111222,11111222,11111222' 
TABS,ioos:station:TABS:X:1,2017-07-01T19:00:00Z,27.0660,-96.3383,4.0,6.64048191,143.8206746,7.82,'11111222,11111222,11111222' 
TABS,ioos:station:TABS:X:1,2017-07-01T19:30:00Z,27.0660,-96.3383,4.0,7.424183457,148.9438793,8.85,'11111222,11111222,11111222' 
TABS,ioos:station:TABS:X:1,2017-07-01T20:00:00Z,27.0660,-96.3383,4.0,7.673252244,149.625598,8.87,'11111222,11111222,11111222' 
TABS,ioos:station:TABS:X:1,2017-07-01T20:30:00Z,27.0660,-96.3383,4.0,7.008031107,150.5089176,8.16,'11111222,11111222,11111222' 
TABS,ioos:station:TABS:X:1,2017-07-01T21:00:00Z,27.0660,-96.3383,4.0,6.795299846,152.0021862,8.08,'11111222,11111222,11111222' 
TABS,ioos:station:TABS:X:1,2017-07-01T21:30:00Z,27.0660,-96.3383,4.0,7.277156038,156.4294955,8.49,'11111222,11111222,11111222' 
TABS,ioos:station:TABS:X:1,2017-07-01T22:00:00Z,27.0660,-96.3383,4.0,7.648954177,152.2626672,9.16,'11111222,11111222,11111222' 
TABS,ioos:station:TABS:X:1,2017-07-01T22:30:00Z,27.0660,-96.3383,4.0,7.30818719,150.4887809,8.91,'11111222,11111222,11111222' 
TABS,ioos:station:TABS:X:1,2017-07-01T23:00:00Z,27.0660,-96.3383,4.0,6.399062431,151.432693,7.76,'11111222,11111222,11111222' 
TABS,ioos:station:TABS:X:1,2017-07-01T23:30:00Z,27.0660,-96.3383,4.0,7.46627752,150.9978493,8.6,'11111222,11111222,11111222' 
TABS,ioos:station:TABS:X:1,2017-07-02T00:00:00Z,27.0660,-96.3383,4.0,7.512296586,148.2778612,8.77,'11111222,11111222,11111222' 
TABS,ioos:station:TABS:X:1,2017-07-02T00:30:00Z,27.0660,-96.3383,4.0,9.093519671,158.3158533,10.67,'11111222,11111222,11111222' 
TABS,ioos:station:TABS:X:1,2017-07-02T01:00:00Z,27.0660,-96.3383,4.0,7.50810229,156.7816337,8.84,'11111222,11111222,11111222' 
TABS,ioos:station:TABS:X:1,2017-07-02T01:30:00Z,27.0660,-96.3383,4.0,8.159736515,163.4086152,9.75,'11111222,11111222,11111222' 
TABS,ioos:station:TABS:X:1,2017-07-02T02:00:00Z,27.0660,-96.3383,4.0,8.450609445,169.9137024,10.02,'11111222,11111222,11111222' 
TABS,ioos:station:TABS:X:1,2017-07-02T02:30:00Z,27.0660,-96.3383,4.0,7.965180475,165.4580526,9.88,'11111222,11111222,11111222' 
TABS,ioos:station:TABS:X:1,2017-07-02T03:00:00Z,27.0660,-96.3383,4.0,8.227812589,165.0688282,10.09,'11111222,11111222,11111222' 
TABS,ioos:station:TABS:X:1,2017-07-02T03:30:00Z,27.0660,-96.3383,4.0,7.954835008,163.5700617,9.16,'11111222,11111222,11111222' 
TABS,ioos:station:TABS:X:1,2017-07-02T04:00:00Z,27.0660,-96.3383,4.0,8.066430437,169.0664192,9.26,'11111222,11111222,11111222' 
TABS,ioos:station:TABS:X:1,2017-07-02T04:30:00Z,27.0660,-96.3383,4.0,7.896258608,170.1561836,9.11,'11111222,11111222,11111222' 
TABS,ioos:station:TABS:X:1,2017-07-02T05:00:00Z,27.0660,-96.3383,4.0,7.975769555,166.9571643,9.4,'11111222,11111222,11111222' 
TABS,ioos:station:TABS:X:1,2017-07-02T05:30:00Z,27.0660,-96.3383,4.0,8.793116626,169.6487636,9.48,'11111222,11111222,11111222' 
TABS,ioos:station:TABS:X:1,2017-07-02T06:00:00Z,27.0660,-96.3383,4.0,8.015441348,164.6636259,9.44,'11111222,11111222,11111222' 
TABS,ioos:station:TABS:X:1,2017-07-02T06:30:00Z,27.0660,-96.3383,4.0,7.693978165,168.1499333,8.87,'11111222,11111222,11111222' 
TABS,ioos:station:TABS:X:1,2017-07-02T07:00:00Z,27.0660,-96.3383,4.0,7.434097121,166.5434792,8.51,'11111222,11111222,11111222' 
TABS,ioos:station:TABS:X:1,2017-07-02T07:30:00Z,27.0660,-96.3383,4.0,7.451610564,167.6799306,8.66,'11111222,11111222,11111222' 
TABS,ioos:station:TABS:X:1,2017-07-02T08:00:00Z,27.0660,-96.3383,4.0,7.300684899,162.955221,8.14,'11111222,11111222,11111222' 
TABS,ioos:station:TABS:X:1,2017-07-02T08:30:00Z,27.0660,-96.3383,4.0,7.518623544,165.8346228,8.52,'11111222,11111222,11111222' 
TABS,ioos:station:TABS:X:1,2017-07-02T09:00:00Z,27.0660,-96.3383,4.0,6.740066765,166.0052345,7.72,'11111222,11111222,11111222' 
TABS,ioos:station:TABS:X:1,2017-07-02T09:30:00Z,27.0660,-96.3383,4.0,7.423233797,163.5671509,8.45,'11111222,11111222,11111222' 
TABS,ioos:station:TABS:X:1,2017-07-02T10:00:00Z,27.0660,-96.3383,4.0,7.084137209,162.3326113,8.45,'11111222,11111222,11111222' 
TABS,ioos:station:TABS:X:1,2017-07-02T10:30:00Z,27.0660,-96.3383,4.0,7.343194128,167.1752238,8.28,'11111222,11111222,11111222' 
TABS,ioos:station:TABS:X:1,2017-07-02T11:00:00Z,27.0660,-96.3383,4.0,7.346543405,160.8500712,8.18,'11111222,11111222,11111222' 
TABS,ioos:station:TABS:X:1,2017-07-02T11:30:00Z,27.0660,-96.3383,4.0,6.687637849,165.008122,8.4,'11111222,11111222,11111222' 
TABS,ioos:station:TABS:X:1,2017-07-02T12:00:00Z,27.0660,-96.3383,4.0,6.603279488,163.4589128,7.43,'11111222,11111222,11111222' 
TABS,ioos:station:TABS:X:1,2017-07-02T12:30:00Z,27.0660,-96.3383,4.0,6.322926538,158.182025,7.18,'11111222,11111222,11111222' 
TABS,ioos:station:TABS:X:1,2017-07-02T13:00:00Z,27.0660,-96.3383,4.0,6.317087937,167.1959743,7.34,'11111222,11111222,11111222' 
TABS,ioos:station:TABS:X:1,2017-07-02T13:30:00Z,27.0660,-96.3383,4.0,6.095900262,167.8792234,7.13,'11111222,11111222,11111222' 
TABS,ioos:station:TABS:X:1,2017-07-02T14:00:00Z,27.0660,-96.3383,4.0,5.459908424,168.484502,6.34,'11111222,11111222,11111222' 
TABS,ioos:station:TABS:X:1,2017-07-02T14:30:00Z,27.0660,-96.3383,4.0,5.633373767,164.5578,6.51,'11111222,11111222,11111222' 
TABS,ioos:station:TABS:X:1,2017-07-02T15:00:00Z,27.0660,-96.3383,4.0,5.1623638,171.0853043,5.99,'11111222,11111222,11111222' 
TABS,ioos:station:TABS:X:1,2017-07-02T15:30:00Z,27.0660,-96.3383,4.0,5.189807318,160.7623105,6.45,'11111222,11111222,11111222' 
TABS,ioos:station:TABS:X:1,2017-07-02T16:00:00Z,27.0660,-96.3383,4.0,4.801541419,160.2822176,5.97,'11111222,11111222,11111222' 
TABS,ioos:station:TABS:X:1,2017-07-02T16:30:00Z,27.0660,-96.3383,4.0,4.288787707,139.0657318,5.3,'11111222,11111222,11111222' 
TABS,ioos:station:TABS:X:1,2017-07-02T17:00:00Z,27.0660,-96.3383,4.0,5.205775639,150.0369746,6.02,'11111222,11111222,11111222' 
TABS,ioos:station:TABS:X:1,2017-07-02T17:30:00Z,27.0660,-96.3383,4.0,4.529293543,146.8014155,4.98,'11111222,11111222,11111222' 
TABS,ioos:station:TABS:X:1,2017-07-02T18:00:00Z,27.0660,-96.3383,4.0,4.87312015,151.4367352,5.62,'11111222,11111222,11111222' 
TABS,ioos:station:TABS:X:1,2017-07-02T18:30:00Z,27.0660,-96.3383,4.0,4.114000486,143.102545,4.98,'11111222,11111222,11111222' 
TABS,ioos:station:TABS:X:1,2017-07-02T19:00:00Z,27.0660,-96.3383,4.0,4.47832558,142.4395069,5.45,'11111222,11111222,11111222' 
TABS,ioos:station:TABS:X:1,2017-07-02T19:30:00Z,27.0660,-96.3383,4.0,4.337891193,140.1439984,5.1,'11111222,11111222,11111222' 
TABS,ioos:station:TABS:X:1,2017-07-02T20:00:00Z,27.0660,-96.3383,4.0,4.808326112,135.0003157,5.49,'11111222,11111222,11111222' 
TABS,ioos:station:TABS:X:1,2017-07-02T20:30:00Z,27.0660,-96.3383,4.0,4.057831933,121.4968472,4.86,'11111222,11111222,11111222' 
TABS,ioos:station:TABS:X:1,2017-07-02T21:00:00Z,27.0660,-96.3383,4.0,4.978604222,131.825007,5.74,'11111222,11111222,11111222' 
TABS,ioos:station:TABS:X:1,2017-07-02T21:30:00Z,27.0660,-96.3383,4.0,5.378633655,155.388808,6.29,'11111222,11111222,11111222' 
TABS,ioos:station:TABS:X:1,2017-07-02T22:00:00Z,27.0660,-96.3383,4.0,6.01641089,160.1798757,7.07,'11111222,11111222,11111222' 
TABS,ioos:station:TABS:X:1,2017-07-02T22:30:00Z,27.0660,-96.3383,4.0,5.726927623,161.7867667,6.74,'11111222,11111222,11111222' 
TABS,ioos:station:TABS:X:1,2017-07-02T23:00:00Z,27.0660,-96.3383,4.0,5.653114186,163.1359725,6.7,'11111222,11111222,11111222' 
TABS,ioos:station:TABS:X:1,2017-07-02T23:30:00Z,27.0660,-96.3383,4.0,5.847366929,167.5564561,6.88,'11111222,11111222,11111222' 
TABS,ioos:station:TABS:X:1,2017-07-03T00:00:00Z,27.0660,-96.3383,4.0,5.942945398,167.8583469,6.92,'11111222,11111222,11111222' 
TABS,ioos:station:TABS:X:1,2017-07-03T00:30:00Z,27.0660,-96.3383,4.0,5.823340965,152.5991692,7.02,'11111222,11111222,11111222' 
TABS,ioos:station:TABS:X:1,2017-07-03T01:00:00Z,27.0660,-96.3383,4.0,5.836480104,158.4905231,7.03,'11111222,11111222,11111222' 
TABS,ioos:station:TABS:X:1,2017-07-03T01:30:00Z,27.0660,-96.3383,4.0,5.693478726,152.7151255,7.1,'11111222,11111222,11111222' 
TABS,ioos:station:TABS:X:1,2017-07-03T02:00:00Z,27.0660,-96.3383,4.0,5.801241246,158.5656565,6.69,'11111222,11111222,11111222' 
TABS,ioos:station:TABS:X:1,2017-07-03T02:30:00Z,27.0660,-96.3383,4.0,6.071573108,161.5653047,7.07,'11111222,11111222,11111222' 
TABS,ioos:station:TABS:X:1,2017-07-03T03:00:00Z,27.0660,-96.3383,4.0,6.2391025,167.0331568,7.85,'11111222,11111222,11111222' 
TABS,ioos:station:TABS:X:1,2017-07-03T03:30:00Z,27.0660,-96.3383,4.0,6.2657322,164.9215692,7.32,'11111222,11111222,11111222' 
TABS,ioos:station:TABS:X:1,2017-07-03T04:00:00Z,27.0660,-96.3383,4.0,6.934933309,161.3301666,8.4,'11111222,11111222,11111222' 
TABS,ioos:station:TABS:X:1,2017-07-03T04:30:00Z,27.0660,-96.3383,4.0,7.509580548,164.3168568,8.75,'11111222,11111222,11111222' 
TABS,ioos:station:TABS:X:1,2017-07-03T05:00:00Z,27.0660,-96.3383,4.0,8.752628177,164.1537614,9.67,'11111222,11111222,11111222' 
TABS,ioos:station:TABS:X:1,2017-07-03T05:30:00Z,27.0660,-96.3383,4.0,8.792002047,168.9842568,10.0,'11111222,11111222,11111222' 
TABS,ioos:station:TABS:X:1,2017-07-03T06:00:00Z,27.0660,-96.3383,4.0,8.703568234,173.0711763,9.79,'11111222,11111222,11111222' 
TABS,ioos:station:TABS:X:1,2017-07-03T06:30:00Z,27.0660,-96.3383,4.0,8.402440122,170.6163822,10.01,'11111222,11111222,11111222' 
TABS,ioos:station:TABS:X:1,2017-07-03T07:00:00Z,27.0660,-96.3383,4.0,8.622511235,172.0674707,9.71,'11111222,11111222,11111222' 
TABS,ioos:station:TABS:X:1,2017-07-03T07:30:00Z,27.0660,-96.3383,4.0,8.655171864,171.4956511,9.77,'11111222,11111222,11111222' 
TABS,ioos:station:TABS:X:1,2017-07-03T08:00:00Z,27.0660,-96.3383,4.0,8.932961435,178.5248369,10.31,'11111222,11111222,11111222' 
TABS,ioos:station:TABS:X:1,2017-07-03T08:30:00Z,27.0660,-96.3383,4.0,9.398180675,173.0945015,10.51,'11111222,11111222,11111222' 
TABS,ioos:station:TABS:X:1,2017-07-03T09:00:00Z,27.0660,-96.3383,4.0,8.57464285,174.8481408,9.69,'11111222,11111222,11111222' 
TABS,ioos:station:TABS:X:1,2017-07-03T09:30:00Z,27.0660,-96.3383,4.0,7.721457116,181.1133278,9.03,'11111222,11111222,11111222' 
TABS,ioos:station:TABS:X:1,2017-07-03T10:00:00Z,27.0660,-96.3383,4.0,7.898670774,182.6851115,8.82,'11111222,11111222,11111222' 
TABS,ioos:station:TABS:X:1,2017-07-03T10:30:00Z,27.0660,-96.3383,4.0,7.118827151,185.1581935,7.86,'11111222,11111222,11111222' 
TABS,ioos:station:TABS:X:1,2017-07-03T11:00:00Z,27.0660,-96.3383,4.0,7.315572431,187.0669237,8.35,'11111222,11111222,11111222' 
TABS,ioos:station:TABS:X:1,2017-07-03T11:30:00Z,27.0660,-96.3383,4.0,7.53894555,185.0226101,8.35,'11111222,11111222,11111222' 
TABS,ioos:station:TABS:X:1,2017-07-03T12:00:00Z,27.0660,-96.3383,4.0,7.311689271,174.6639028,8.36,'11111222,11111222,11111222' 
TABS,ioos:station:TABS:X:1,2017-07-03T12:30:00Z,27.0660,-96.3383,4.0,7.462680484,178.464502,8.49,'11111222,11111222,11111222' 
TABS,ioos:station:TABS:X:1,2017-07-03T13:00:00Z,27.0660,-96.3383,4.0,6.969827831,183.0432352,7.97,'11111222,11111222,11111222' 
TABS,ioos:station:TABS:X:1,2017-07-03T13:30:00Z,27.0660,-96.3383,4.0,7.40297913,181.6257317,8.36,'11111222,11111222,11111222' 
TABS,ioos:station:TABS:X:1,2017-07-03T14:00:00Z,27.0660,-96.3383,4.0,7.17337438,181.7576844,7.87,'11111222,11111222,11111222' 
TABS,ioos:station:TABS:X:1,2017-07-03T14:30:00Z,27.0660,-96.3383,4.0,6.977227243,175.9731099,7.88,'11111222,11111222,11111222' 
TABS,ioos:station:TABS:X:1,2017-07-03T15:00:00Z,27.0660,-96.3383,4.0,6.870029112,180.1670095,7.79,'11111222,11111222,11111222' 
TABS,ioos:station:TABS:X:1,2017-07-03T15:30:00Z,27.0660,-96.3383,4.0,6.783251433,181.7742872,7.7,'11111222,11111222,11111222' 
TABS,ioos:station:TABS:X:1,2017-07-03T16:00:00Z,27.0660,-96.3383,4.0,6.697947447,175.8049,7.92,'11111222,11111222,11111222' 
TABS,ioos:station:TABS:X:1,2017-07-03T16:30:00Z,27.0660,-96.3383,4.0,6.841235269,173.706277,7.59,'11111222,11111222,11111222' 
TABS,ioos:station:TABS:X:1,2017-07-03T17:00:00Z,27.0660,-96.3383,4.0,6.735822147,177.6178131,7.5,'11111222,11111222,11111222' 
TABS,ioos:station:TABS:X:1,2017-07-03T17:30:00Z,27.0660,-96.3383,4.0,6.138436283,168.7269151,6.96,'11111222,11111222,11111222' 
TABS,ioos:station:TABS:X:1,2017-07-03T18:00:00Z,27.0660,-96.3383,4.0,6.150203249,168.6537638,7.29,'11111222,11111222,11111222' 
TABS,ioos:station:TABS:X:1,2017-07-03T18:30:00Z,27.0660,-96.3383,4.0,6.262403692,163.6778296,7.25,'11111222,11111222,11111222' 
TABS,ioos:station:TABS:X:1,2017-07-03T19:00:00Z,27.0660,-96.3383,4.0,5.733489339,164.3156592,7.09,'11111222,11111222,11111222' 
TABS,ioos:station:TABS:X:1,2017-07-03T19:30:00Z,27.0660,-96.3383,4.0,6.238525467,159.938685,7.26,'11111222,11111222,11111222' 
TABS,ioos:station:TABS:X:1,2017-07-03T20:00:00Z,27.0660,-96.3383,4.0,6.3122896,158.9236479,7.09,'11111222,11111222,11111222' 
TABS,ioos:station:TABS:X:1,2017-07-03T20:30:00Z,27.0660,-96.3383,4.0,6.542369601,157.6296548,7.95,'11111222,11111222,11111222' 
TABS,ioos:station:TABS:X:1,2017-07-03T21:00:00Z,27.0660,-96.3383,4.0,7.177534396,166.8739927,8.28,'11111222,11111222,11111222' 
TABS,ioos:station:TABS:X:1,2017-07-03T21:30:00Z,27.0660,-96.3383,4.0,7.297513275,168.859681,8.6,'11111222,11111222,11111222' 
TABS,ioos:station:TABS:X:1,2017-07-03T22:00:00Z,27.0660,-96.3383,4.0,7.807438761,168.4744213,8.64,'11111222,11111222,11111222' 
TABS,ioos:station:TABS:X:1,2017-07-03T22:30:00Z,27.0660,-96.3383,4.0,6.878408246,160.9067631,7.77,'11111222,11111222,11111222' 
TABS,ioos:station:TABS:X:1,2017-07-03T23:00:00Z,27.0660,-96.3383,4.0,6.81692746,160.1033203,8.2,'11111222,11111222,11111222' 
TABS,ioos:station:TABS:X:1,2017-07-03T23:30:00Z,27.0660,-96.3383,4.0,7.173234975,163.5611253,8.37,'11111222,11111222,11111222' 
TABS,ioos:station:TABS:X:1,2017-07-04T00:00:00Z,27.0660,-96.3383,4.0,6.820117301,166.0862521,7.88,'11111222,11111222,11111222' 
TABS,ioos:station:TABS:X:1,2017-07-04T00:30:00Z,27.0660,-96.3383,4.0,6.751481319,161.4311232,7.85,'11111222,11111222,11111222' 
TABS,ioos:station:TABS:X:1,2017-07-04T01:00:00Z,27.0660,-96.3383,4.0,7.392002435,160.3151489,8.64,'11111222,11111222,11111222' 
TABS,ioos:station:TABS:X:1,2017-07-04T01:30:00Z,27.0660,-96.3383,4.0,7.363708305,167.5305084,8.21,'11111222,11111222,11111222' 
TABS,ioos:station:TABS:X:1,2017-07-04T02:00:00Z,27.0660,-96.3383,4.0,7.520066489,161.9508037,8.48,'11111222,11111222,11111222' 
TABS,ioos:station:TABS:X:1,2017-07-04T02:30:00Z,27.0660,-96.3383,4.0,7.619619413,163.6107085,9.42,'11111222,11111222,11111222' 
TABS,ioos:station:TABS:X:1,2017-07-04T03:00:00Z,27.0660,-96.3383,4.0,8.563930173,163.2369234,9.56,'11111222,11111222,11111222' 
TABS,ioos:station:TABS:X:1,2017-07-04T03:30:00Z,27.0660,-96.3383,4.0,9.25415042,170.2325536,10.99,'11111222,11111222,11111222' 
TABS,ioos:station:TABS:X:1,2017-07-04T04:00:00Z,27.0660,-96.3383,4.0,8.843172508,172.1358495,10.33,'11111222,11111222,11111222' 
TABS,ioos:station:TABS:X:1,2017-07-04T04:30:00Z,27.0660,-96.3383,4.0,9.839679873,171.0548495,11.64,'11111222,11111222,11111222' 
TABS,ioos:station:TABS:X:1,2017-07-04T05:00:00Z,27.0660,-96.3383,4.0,8.899730333,174.584306,10.31,'11111222,11111222,11111222' 
TABS,ioos:station:TABS:X:1,2017-07-04T05:30:00Z,27.0660,-96.3383,4.0,8.6200058,180.0666787,9.58,'11111222,11111222,11111222' 
TABS,ioos:station:TABS:X:1,2017-07-04T06:00:00Z,27.0660,-96.3383,4.0,8.750691401,180.7204606,10.0,'11111222,11111222,11111222' 
TABS,ioos:station:TABS:X:1,2017-07-04T06:30:00Z,27.0660,-96.3383,4.0,9.54738184,185.7107902,10.98,'11111222,11111222,11111222' 
TABS,ioos:station:TABS:X:1,2017-07-04T07:00:00Z,27.0660,-96.3383,4.0,9.984813468,181.7793629,11.84,'11111222,11111222,11111222' 
TABS,ioos:station:TABS:X:1,2017-07-04T07:30:00Z,27.0660,-96.3383,4.0,9.323910124,181.6595987,10.9,'11111222,11111222,11111222' 
TABS,ioos:station:TABS:X:1,2017-07-04T08:00:00Z,27.0660,-96.3383,4.0,9.571885917,181.1375921,10.71,'11111222,11111222,11111222' 
TABS,ioos:station:TABS:X:1,2017-07-04T08:30:00Z,27.0660,-96.3383,4.0,9.424356742,183.1631716,10.76,'11111222,11111222,11111222' 
TABS,ioos:station:TABS:X:1,2017-07-04T09:00:00Z,27.0660,-96.3383,4.0,8.863814077,181.6810901,10.11,'11111222,11111222,11111222' 
TABS,ioos:station:TABS:X:1,2017-07-04T09:30:00Z,27.0660,-96.3383,4.0,8.507202831,177.64231,9.87,'11111222,11111222,11111222' 
TABS,ioos:station:TABS:X:1,2017-07-04T10:00:00Z,27.0660,-96.3383,4.0,8.660698586,179.2724758,9.87,'11111222,11111222,11111222' 
TABS,ioos:station:TABS:X:1,2017-07-04T10:30:00Z,27.0660,-96.3383,4.0,8.640052083,184.7803622,9.68,'11111222,11111222,11111222' 
TABS,ioos:station:TABS:X:1,2017-07-04T11:00:00Z,27.0660,-96.3383,4.0,7.94713785,190.6597003,9.63,'11111222,11111222,11111222' 
TABS,ioos:station:TABS:X:1,2017-07-04T11:30:00Z,27.0660,-96.3383,4.0,7.456808969,185.6954992,8.4,'11111222,11111222,11111222' 
TABS,ioos:station:TABS:X:1,2017-07-04T12:00:00Z,27.0660,-96.3383,4.0,7.590105401,179.6982599,8.72,'11111222,11111222,11111222' 
TABS,ioos:station:TABS:X:1,2017-07-04T12:30:00Z,27.0660,-96.3383,4.0,7.11506149,187.754478,8.19,'11111222,11111222,11111222' 
TABS,ioos:station:TABS:X:1,2017-07-04T13:00:00Z,27.0660,-96.3383,4.0,7.38346802,173.7800063,8.09,'11111222,11111222,11111222' 
TABS,ioos:station:TABS:X:1,2017-07-04T13:30:00Z,27.0660,-96.3383,4.0,7.92646201,177.6864934,9.13,'11111222,11111222,11111222' 
TABS,ioos:station:TABS:X:1,2017-07-04T14:00:00Z,27.0660,-96.3383,4.0,7.416070388,177.6818148,8.1,'11111222,11111222,11111222' 
TABS,ioos:station:TABS:X:1,2017-07-04T14:30:00Z,27.0660,-96.3383,4.0,6.725027881,177.7845198,7.6,'11111222,11111222,11111222' 
TABS,ioos:station:TABS:X:1,2017-07-04T15:00:00Z,27.0660,-96.3383,4.0,6.670906985,179.0553904,7.65,'11111222,11111222,11111222' 
TABS,ioos:station:TABS:X:1,2017-07-04T15:30:00Z,27.0660,-96.3383,4.0,6.451116182,178.9343679,7.33,'11111222,11111222,11111222' 
TABS,ioos:station:TABS:X:1,2017-07-04T16:00:00Z,27.0660,-96.3383,4.0,6.398007502,177.1333399,7.54,'11111222,11111222,11111222' 
TABS,ioos:station:TABS:X:1,2017-07-04T16:30:00Z,27.0660,-96.3383,4.0,6.310277331,176.7297302,7.06,'11111222,11111222,11111222' 
TABS,ioos:station:TABS:X:1,2017-07-04T17:00:00Z,27.0660,-96.3383,4.0,6.234909783,168.0595191,7.11,'11111222,11111222,11111222' 
TABS,ioos:station:TABS:X:1,2017-07-04T17:30:00Z,27.0660,-96.3383,4.0,7.032389352,163.1371255,7.9,'11111222,11111222,11111222' 
TABS,ioos:station:TABS:X:1,2017-07-04T18:00:00Z,27.0660,-96.3383,4.0,6.515519933,160.4529077,7.3,'11111222,11111222,11111222' 
TABS,ioos:station:TABS:X:1,2017-07-04T18:30:00Z,27.0660,-96.3383,4.0,5.714962817,164.9913319,6.45,'11111222,11111222,11111222' 
TABS,ioos:station:TABS:X:1,2017-07-04T19:00:00Z,27.0660,-96.3383,4.0,5.726866508,163.4639127,7.11,'11111222,11111222,11111222' 
TABS,ioos:station:TABS:X:1,2017-07-04T19:30:00Z,27.0660,-96.3383,4.0,5.870306636,155.2251278,6.94,'11111222,11111222,11111222' 
TABS,ioos:station:TABS:X:1,2017-07-04T20:00:00Z,27.0660,-96.3383,4.0,6.471483601,152.8808924,7.89,'11111222,11111222,11111222' 
TABS,ioos:station:TABS:X:1,2017-07-04T20:30:00Z,27.0660,-96.3383,4.0,6.723280449,165.5299502,7.79,'11111222,11111222,11111222' 